www.pogodaiklimat.ru

Погода и климат >> Архив погоды >> Россия >> Крым >> Карадаг


ПОГОДА в Карадаге

  • Прогноз погоды в Карадаге
  • Монитор погоды в Карадаге

АРХИВ ПОГОДЫ в Карадаге

Время (UTC), дата Ветер
(напр.,м/с)
 
Видим.   Явления Облачность Т
(С)
Тd
(С)
f
(%)
Тe
(С)
Тes
(С)
Комфортность P
(гПа)
Po
(гПа)
Тmin
(С)
Tmax
(С)
R
(мм)
R24
(мм)
S
(см)
00 16.09 СЗ 3 20 км ясно +15.6 +2.2 40 +15 +15 1020.6 1015.6
03 16.09 СЗ 3 20 км ясно +18.1 +3.7 38 +18 +18 1019.5 1014.6 +14.1
06 16.09 С 3 50 км ясно +20.8 +7.2 41 +22 +25 комфорт 1018.9 1014.0 +14.1
09 16.09 ЮВ 2 50 км 1/0
[Ci fib]
+23.3 +10.1 43 +25 +36 комфорт 1017.2 1012.4
12 16.09 Ю 4 20 км ясно +23.2 +10.4 44 +25 +30 комфорт 1016.1 1011.3
15 16.09 ЮЗ 7-11
{10}
20 км ясно +21.4 +10.1 48 +23 +23 комфорт 1014.6 1009.8
18 16.09 З 2
{11}
20 км ясно +19.0 +12.8 67 +21 +21 комфорт 1014.8 1009.9 +25.5
21 16.09 СЗ 2 20 км ясно +15.6 +11.3 76 +16 +16 1014.4 1009.5
00 17.09 СЗ 2 20 км ясно +14.8 +10.9 77 +15 +15 1013.6 1008.6
03 17.09 С 2 20 км ясно +14.8 +10.4 75 +15 +15 1012.7 1007.8 +13.0
06 17.09 штиль 0 50 км 1/0
[Ci fib]
+21.2 +14.6 66 +24 +29 комфорт 1012.6 1007.8 +13.0
09 17.09 ЮВ 3 50 км 3/0
[Ci fib]
+23.0 +15.4 62 +27 +36 душно 1012.2 1007.4
12 17.09 Ю 6-10
{11}
20 км 9/0
[Ac cast Ci fib]
+23.4 +15.0 59 +27 +29 душно 1011.1 1006.3
15 17.09 Ю 3
{10}
20 км 9/0
[Ac cast Ci fib]
+22.9 +18.0 74 +28 +28 душно 1010.5 1005.7
18 17.09 С 3 20 км 9/0
[Ac cast Ci fib]
+20.0 +16.0 78 +23 +23 комфорт 1011.1 1006.3 +24.6
21 17.09 СЗ 2 20 км 9/0
[Ac cast Ci fib]
+21.7 +14.4 63 +25 +25 комфорт 1011.1 1006.3
00 18.09 С 2 20 км 9/0
[Ac lent]
+20.7 +12.8 61 +24 +24 комфорт 1011.3 1006.5
03 18.09 ЮЗ 2 20 км 9/0
[Ac lent Ci fib]
+20.0 +14.6 71 +23 +23 комфорт 1010.9 1006.1 +19.5
06 18.09 ЮЗ 8-13
{11}
20 км 8/4 600 м
[Sc Ci fib]
+22.5 +17.5 73 +27 +28 душно 1010.6 1005.8 +19.5
09 18.09 ЮЗ 11-16
{16}
20 км 9/9 600 м
[Sc]
+23.3 +18.0 72 +29 +29 душно 1010.8 1006.0
12 18.09 ЮЗ 9-13
{16}
20 км 9/3 600 м
[Sc Ac cast Ci fib]
+24.4 +18.9 71 +29 +29 душно 1009.9 1005.1
15 18.09 С 8-14
{13}
20 км 9/0
[Ac cast]
+22.4 +8.8 42 +24 +24 комфорт 1012.4 1007.6
18 18.09 СЗ 6-12
{14}
20 км 9/0
[Ac cast]
+19.4 +7.3 45 +20 +20 1014.4 1009.5 +26.0
21 18.09 СЗ 6-14
{14}
20 км 9/8 600 м
[Cb cap Ac lent]
+17.1 +5.5 46 +16 +16 1017.2 1012.3
00 19.09 СЗ 8-15
{17}
20 км 9/0
[]
+15.5 +3.5 45 +14 +14 1018.2 1013.2
03 19.09 СЗ 6-12
{15}
20 км ясно +12.8 +2.9 51 +11 +11 1020.4 1015.4 +12.2
06 19.09 ЮВ 1
{12}
50 км 4/0
[Ci fib]
+17.2 +5.5 46 +18 +22 1021.3 1016.3 +11.6
09 19.09 СЗ 5 50 км 9/6 600 м
[Sc Ac As Ci fib]
+18.4 +4.4 40 +18 +20 1021.5 1016.6
12 19.09 З 2
{10}
50 км 9/6 600 м
[Sc Ac trans]
+19.1 +4.4 38 +20 +22 1020.9 1016.0
15 19.09 ЮЗ 4 50 км 9/6 600 м
[Sc Ac trans Ci fib]
+18.0 +6.9 48 +18 +18 1021.0 1016.1
18 19.09 СЗ 2 50 км 9/3 600 м
[Sc Ac cast]
+15.2 +6.4 56 +15 +15 1021.0 1016.0 +20.0
21 19.09 СЗ 2 50 км 10/0
[Ac As]
+14.1 +7.4 64 +14 +14 1020.3 1015.3
00 20.09 СЗ 2 50 км 9/0
[Ac und]
+16.1 +6.0 51 +16 +16 1019.5 1014.5
03 20.09 С 2 50 км 9/0
[Ac und]
+15.4 +4.0 46 +15 +15 1018.2 1013.2 +13.4
06 20.09 СЗ 4 20 км слаб. ливневой дождь 10/8 600 м
[Cb cap Ac cast]
+15.2 +5.0 51 +14 +14 1018.6 1013.6 +13.4 0.0
09 20.09 СЗ 1 10 км слаб. ливневой дождь 10/10 600 м
[Cb cap]
+13.2 +9.1 76 +13 +13 1018.0 1013.0
12 20.09 З 1 10 км слаб. ливневой дождь 10/10 600 м
[Cb cap]
+13.3 +9.6 78 +14 +14 1017.2 1012.2
15 20.09 штиль 0 20 км {ливн. осадки} 9/4 600 м
[Sc diur, vesp Ac cast Ci fib]
+14.0 +9.6 75 +14 +14 1017.2 1012.2 3
18 20.09 СЗ 2 20 км {ливн. осадки} 9/0
[Ac cast Ci fib]
+13.1 +5.7 61 +13 +13 1018.4 1013.4 +15.4 3
21 20.09 СЗ 2 20 км ясно +12.4 +2.9 52 +12 +12 1018.7 1013.7
00 21.09 С 1 20 км ясно +11.8 +2.9 54 +12 +12 1019.0 1014.0
03 21.09 СЗ 2 20 км 3/0
[Ac cast]
+9.8 +3.1 63 +9 +9 1019.5 1014.4 +9.1
06 21.09 СЗ 4 50 км 6/0
[Ac lent]
+13.0 +3.5 52 +12 +13 1020.5 1015.5 +9.0
09 21.09 З 6-11
{11}
50 км 3/3 600 м
[Sc]
+15.0 +2.6 43 +14 +16 1020.9 1015.9
12 21.09 З 4
{11}
50 км 9/9 600 м
[Sc]
+16.0 +2.6 41 +15 +16 1021.4 1016.4
15 21.09 СЗ 5
{11}
50 км 3/3 600 м
[Sc]
+14.8 +1.0 39 +14 +14 1022.2 1017.2
18 21.09 З 3 50 км 1/1 600 м
[Sc]
+12.1 +1.0 47 +11 +11 1024.3 1019.2 +16.7
21 21.09 СЗ 3 50 км ясно +9.8 +0.5 52 +8 +8 1024.6 1019.5
00 22.09 СЗ 4 50 км ясно +9.0 +0.3 54 +6 +6 1024.3 1019.2
03 22.09 СЗ 3 50 км 1/0
[Ci]
+10.8 +2.2 55 +9 +9 1023.8 1018.7 +8.3
06 22.09 ЮЗ 3 50 км 9/1 600 м
[Sc Ac cast Ci fib]
+15.4 +4.9 50 +15 +16 1023.9 1018.9 +8.3
09 22.09 ЮЗ 6-11
{11}
50 км 9/4 600 м
[Sc Ac cast]
+17.6 +7.6 52 +17 +18 1022.9 1017.9
12 22.09 ЮЗ 6-10
{11}
50 км 9/8 600 м
[Sc Ac cast]
+19.0 +8.4 50 +19 +20 1021.1 1016.2
15 22.09 ЮЗ 5
{11}
50 км 6/6 600 м
[Sc]
+18.3 +9.7 57 +18 +18 1019.9 1015.0
18 22.09 СЗ 3
{10}
50 км 3/0
[Ac cast]
+16.2 +8.8 62 +16 +16 1020.2 1015.2 +20.0

 

Местоположение метеостанции Карадаг (Крым, Россия): широта 44.90 долгота 35.20 высота над уровнем моря 42 м.

В архиве по умолчанию представлена погода в Карадаге за последнюю неделю. Архивные данные за месяц целиком и за предыдущие месяцы, начиная с января 2011 года, Вы можете получить, выбрав интересующий диапазон дат из раскрывающегося списка и нажав кнопку "Ввод!".


*Определитесь, кто Вы:
робот инопланетянин человек

Внимание! Время в таблицах - всемирное. Для получения местного времени необходимо прибавить поправку, которая равна 3 ч.

Смотрите также архив погоды в соседних городах и на ближайших метеорологических станциях:

Погода в Феодосии (Крым, Россия) (20 км)
Погода в Владиславовке (Крым, Россия) (33 км)
Погода в Белогорске (Крым, Россия) (50 км)
Погода в Алуште (Крым, Россия) (68 км)
Погода на Ангарском Перевале (Крым, Россия) (69 км)
Погода в Нижнегорском (Крым, Россия) (71 км)
Погода в Мысовом (Крым, Россия) (78 км)
Погода в Симферополе город (Крым, Россия) (85 км)
Погода в Никитском саду (Крым, Россия) (86 км)
Погода в Стрелковом (Херсонская область, Украина) (88 км)

Пояснения к столбцам:

Ветер - указаны скорость ветра в м/с - средняя за 10 мин, порывы в срок и между сроками (в фигурных скобках) и направление, откуда дует ветер: С - северный, СВ - северо-восточный, В - восточный, ЮВ - юго-восточный, Ю - южный, ЮЗ - юго-западный, З - западный, СЗ - северо-западный.
Видимость - горизонтальная дальность видимости в метрах или километрах. При видимости от 1 до 10 км при отсутствии осадков обычно наблюдается дымка, при ухудшении видимости до 1 км и менее - туман. В сухую погоду видимость может ухудшаться дымом, пылью или мглою.
Явления - указаны атмосферные явления, наблюдавшиеся в срок или в последний час перед сроком; фигурными скобками обозначены явления, наблюдавшиеся между сроками (за 1-3 часа до срока); квадратными скобками обозначены град или гололедные отложения с указанием их диаметра в мм.
Облачность - указаны через наклонную черту общая и нижняя облачность в баллах и высота нижней границы облаков в метрах; квадратными скобками обозначены формы облаков: Ci - перистые, Cs - перисто-слоистые, Cc - перисто-кучевые, Ac - высококучевые, As - высокослоистые, Sc - слоисто-кучевые, Ns - слоисто-дождевые, Cu - кучевые, Cb - кучево-дождевые. Подробнее классификацию облаков см. в Атласе облаков (PDF).
T - Температура воздуха - температура, измеренная на высоте 2 м над землей.
Td - Температура точки росы - температура, при понижении до которой содержащийся в воздухе водяной пар достигнет насыщения.
f - Относительная влажность воздуха - влажноcть воздуха, измеренная на высоте 2 м над землей.
Te - Эффективная температура - температура, которую ощущает одетый по сезону человек в тени. Характеристика душности погоды. При расчете учитывается влияние влажности воздуха и скорости ветра на теплоощущения человека.
Tes - Эффективная температура на солнце - температура, которую ощущает человек, с поправкой на солнечный нагрев. Характеристика знойности погоды. Зависит от высоты солнца над горизонтом, облачности и скорости ветра. Ночью, в пасмурную погоду, а также при ветре 12 м/с и более поправка равна нулю.
P - Атмосферное давление - приведенное к уровню моря атмосферное давление.
Po - Атмосферное давление - измеренное на уровне метеостанции атмосферное давление.
Tmin - Минимальная температура - минимум температуры воздуха на высоте 2 м над землей.
Tmax - Максимальная температура - максимум температуры воздуха на высоте 2 м над землей.
R - Количество осадков - Количество выпавших осадков за период времени, мм. При наведении курсора мыши на число - период времени, за который выпало указанное количество осадков.
R24 - Количество осадков - Количество выпавших осадков за 24 часа, мм.
S - Снежный покров - Высота снежного покрова, см. При наведении курсора мыши на число - состояние снежного покрова и степень покрытия местности в баллах.